7 * 24
多渠道服务支持
STARLINK-35795是美国SpaceX星链互联网卫星项目的一员,于2025年11月6日发射升空。作为星链组网卫星,它被部署到近地轨道,主要任务是为全球范围尤其是偏远地区提供高速低延迟的互联网接入服务。它延续了星链卫星设计特点,依靠星间链路完成数据传输,进一步扩充星链星座规模,提升项目全球覆盖能力。
美国
(US)
| 数据来源 | 国际轨道数据 |
| 星历时间: | 2026-09-13T05:36:20+0800 8小时前 查看轨道信息 |
| 半长轴: | 6840.842km |
| 偏心率: | 0.0001113 |
| 轨道倾角: | 53.161° |
| 近地点辐角 | 89.662° |
| 升交点赤经 | 78.917° |
| 平近点角 | 270.450° |
| 近地点: | 461.943km |
| 远地点: | 463.467km |
| 周期: | 93.848分钟 |
| 每日圈数: | 15.343996 |